| time (UTC) | temp F | wind direction | speed MPH | gust MPH | rain 1hr in | rain 24hr in | rain mn in | humidity % | barometer mb |
| 20260504044605 | 51 | 193 | 5.0 | 11.0 | 0.00 | 0.00 | 0.00 | 65 | 1005.4 |
| 20260504043053 | 52 | 194 | 3.0 | 11.0 | 0.00 | 0.00 | 0.00 | 64 | 1005.6 |
| 20260504041549 | 52 | 205 | 5.0 | 12.0 | 0.00 | 0.00 | 0.00 | 63 | 1005.6 |
| 20260504040051 | 52 | 232 | 6.0 | 16.0 | 0.00 | 0.00 | 0.00 | 63 | 1005.7 |
| 20260504034545 | 52 | 209 | 6.0 | 14.0 | 0.00 | 0.00 | 0.00 | 64 | 1005.8 |
| 20260504033043 | 51 | 213 | 6.0 | 10.0 | 0.00 | 0.00 | 0.00 | 64 | 1005.9 |
| 20260504031544 | 51 | 218 | 6.0 | 13.0 | 0.00 | 0.00 | 0.00 | 64 | 1006.1 |
| 20260504030042 | 52 | 200 | 5.0 | 12.0 | 0.00 | 0.00 | 0.00 | 63 | 1006.3 |
| 20260504024542 | 52 | 223 | 6.0 | 13.0 | 0.00 | 0.00 | 0.00 | 62 | 1006.3 |
| 20260504023042 | 53 | 225 | 7.0 | 15.0 | 0.00 | 0.00 | 0.00 | 61 | 1006.4 |
| 20260504021544 | 53 | 229 | 8.0 | 15.0 | 0.00 | 0.00 | 0.00 | 61 | 1006.5 |
| 20260504020040 | 53 | 214 | 6.0 | 10.0 | 0.00 | 0.00 | 0.00 | 62 | 1006.7 |
| 20260504014542 | 53 | 243 | 7.0 | 13.0 | 0.00 | 0.00 | 0.00 | 61 | 1006.6 |
| 20260504013051 | 54 | 208 | 7.0 | 18.0 | 0.00 | 0.00 | 0.00 | 59 | 1006.5 |
| 20260504011538 | 54 | 223 | 9.0 | 15.0 | 0.00 | 0.00 | 0.00 | 58 | 1006.4 |
| 20260504010044 | 55 | 218 | 9.0 | 17.0 | 0.00 | 0.00 | 0.00 | 57 | 1006.3 |
| 20260504004537 | 56 | 238 | 8.0 | 14.0 | 0.00 | 0.00 | 0.00 | 56 | 1006.1 |
| 20260504003038 | 56 | 231 | 6.0 | 11.0 | 0.00 | 0.00 | 0.00 | 57 | 1006.1 |
| 20260504001540 | 56 | 214 | 4.0 | 8.0 | 0.00 | 0.00 | 0.00 | 56 | 1006.1 |
| 20260504000037 | 57 | 208 | 6.0 | 11.0 | 0.00 | 0.00 | 0.00 | 55 | 1006.0 |
| 20260503234535 | 57 | 279 | 6.0 | 11.0 | 0.00 | 0.00 | 0.00 | 55 | 1005.9 |
| 20260503233037 | 57 | 226 | 6.0 | 12.0 | 0.00 | 0.00 | 0.00 | 53 | 1006.0 |
| 20260503231533 | 58 | 243 | 9.0 | 15.0 | 0.00 | 0.00 | 0.00 | 51 | 1005.9 |
| 20260503230034 | 58 | 248 | 10.0 | 17.0 | 0.00 | 0.00 | 0.00 | 50 | 1006.0 |
| 20260503224534 | 59 | 229 | 7.0 | 11.0 | 0.00 | 0.00 | 0.00 | 51 | 1006.1 |
| 20260503223031 | 59 | 238 | 9.0 | 13.0 | 0.00 | 0.00 | 0.00 | 49 | 1006.2 |
| 20260503221532 | 60 | 252 | 8.0 | 17.0 | 0.00 | 0.00 | 0.00 | 50 | 1006.2 |
| 20260503220031 | 60 | 243 | 8.0 | 16.0 | 0.00 | 0.00 | 0.00 | 50 | 1006.4 |
| 20260503214529 | 60 | 258 | 8.0 | 17.0 | 0.00 | 0.00 | 0.00 | 51 | 1006.4 |
| 20260503213028 | 61 | 227 | 12.0 | 18.0 | 0.00 | 0.00 | 0.00 | 49 | 1006.3 |
| 20260503211527 | 61 | 227 | 11.0 | 17.0 | 0.00 | 0.00 | 0.00 | 51 | 1006.3 |
| 20260503210026 | 60 | 244 | 10.0 | 19.0 | 0.00 | 0.00 | 0.00 | 51 | 1006.5 |
| 20260503204524 | 61 | 256 | 9.0 | 20.0 | 0.00 | 0.00 | 0.00 | 50 | 1006.4 |
| 20260503203024 | 60 | 244 | 13.0 | 20.0 | 0.00 | 0.00 | 0.00 | 52 | 1006.9 |
| 20260503201523 | 60 | 231 | 12.0 | 20.0 | 0.00 | 0.00 | 0.00 | 53 | 1006.9 |
| 20260503200021 | 59 | 242 | 11.0 | 19.0 | 0.00 | 0.00 | 0.00 | 52 | 1007.1 |
| 20260503194521 | 59 | 240 | 9.0 | 19.0 | 0.00 | 0.00 | 0.00 | 52 | 1007.3 |
| 20260503193019 | 60 | 209 | 12.0 | 21.0 | 0.00 | 0.00 | 0.00 | 51 | 1007.4 |
| 20260503191528 | 60 | 236 | 9.0 | 16.0 | 0.00 | 0.00 | 0.00 | 56 | 1007.7 |
| 20260503190012 | 58 | 250 | 7.0 | 15.0 | 0.00 | 0.00 | 0.00 | 59 | 1007.9 |
| 20260503184511 | 57 | 210 | 6.0 | 12.0 | 0.00 | 0.00 | 0.00 | 62 | 1008.2 |
| 20260503183008 | 55 | 221 | 6.0 | 12.0 | 0.00 | 0.00 | 0.00 | 67 | 1008.7 |
| 20260503181507 | 52 | 229 | 5.0 | 10.0 | 0.00 | 0.00 | 0.00 | 70 | 1009.1 |
| 20260503180005 | 52 | 225 | 7.0 | 22.0 | 0.00 | 0.00 | 0.00 | 66 | 1009.3 |
| 20260503174503 | 53 | 253 | 4.0 | 11.0 | 0.00 | 0.00 | 0.00 | 65 | 1009.5 |
| 20260503173003 | 54 | 238 | 5.0 | 14.0 | 0.00 | 0.00 | 0.00 | 59 | 1009.6 |
| 20260503171502 | 55 | 259 | 9.0 | 17.0 | 0.00 | 0.00 | 0.00 | 55 | 1009.6 |
| 20260503160115 | 59 | 247 | 10.0 | 20.0 | 0.00 | 0.00 | 0.00 | 47 | 1009.7 |
| 20260503081532 | 33 | 220 | 2.0 | 3.0 | 0.00 | 0.00 | 0.00 | 77 | 1013.3 |
| 20260503071527 | 34 | 220 | 1.0 | 3.0 | 0.00 | 0.00 | 0.00 | 75 | 1013.4 |